Content
SEND FEEDBACK

Daily
Averages
Monthly
Summary
Canada

QUEBEC CITY, QUEBEC


Home > North America > Canada > Quebec
Elevation: 239 feet     Latitude: 46 48N     Longitude: 071 23W

WEATHER
 
SELECT A DAY
Number of Records: 191,965;   Date Range: 6/30/96 - 7/20/14
 
SHARE

PRINT THIS DATA

[ ← Previous Day ]
WEATHER ALMANAC - JUNE 7, 2014
[ Next Day → ]
[ °C ]   °F
Weather ElementAverageHighLow
Temperature67.2 °F80.6 °F (2:00 pm)48 °F (5:00 am)
Dewpoint56.8 °F64.4 °F (11:00 am)48 °F (2:00 am)
Humidity71.8 %100 % (2:00 am)29 % (2:00 pm)
Barometer29.85 in29.89 in (8:00 am)29.82 in (5:00 pm)
Wind Speed6.2 mph16.1 mph (3:00 pm)
Wind Gust18.4 mph (11:00 am)
Weather ElementAverage
Visibility24.4 mi
Wind DirectionSSW (209.7 °)

Weather ElementTotal
Precipitation---
Heating Degree Days0.7 (Base 65)
Growing Degree Days14.3 (Base 50)
Averaged from 32 records on June 7, 2014
WEATHER CONDITIONS BREAKOUT
WIND DIRECTION BREAKOUT
WEATHER BY HOUR - JUNE 7, 2014
[ °C ]   °F
Local TimeTemperatureDewpointHumidityBarometerVisibilityWind DirectionWind SpeedGust SpeedPrecipitationEventsConditions
1:00 AM53.6 °F51.8 °F94 %29.85 in10.0 miVariable2.3 mphClear
2:00 AM49.0 °F48.0 °F96 %29.84 inCalm
2:00 AM50.0 °F50.0 °F100 %29.85 in10.0 miCalmClear
3:00 AM50.0 °F50.0 °F100 %29.84 in15.0 miVariable2.3 mphClear
4:00 AM51.8 °F51.8 °F100 %29.85 in15.0 miWNW (300°)2.3 mphPartly Cloudy
5:00 AM48.0 °F48.0 °F99 %29.85 inWSW (250°)3.5 mph
5:00 AM51.8 °F51.8 °F100 %29.85 in15.0 miWSW (250°)5.8 mphFogPartly Cloudy
6:00 AM53.6 °F53.6 °F100 %29.87 in15.0 miVariable2.3 mphFogPartly Cloudy
7:00 AM57.2 °F55.4 °F94 %29.87 in30.0 miWSW (250°)3.5 mphScattered Clouds
8:00 AM63.0 °F61.0 °F92 %29.88 inSouth (190°)3.5 mph
8:00 AM64.4 °F59.0 °F83 %29.89 in30.0 miSSW (210°)8.1 mphPartly Cloudy
9:00 AM66.2 °F60.8 °F83 %29.89 in30.0 miSW (220°)10.4 mphScattered Clouds
10:00 AM69.8 °F60.8 °F73 %29.88 in30.0 miSSW (200°)11.5 mphPartly Cloudy
11:00 AM72.0 °F62.0 °F63 %29.86 inSSW (200°)8.1 mph
11:00 AM73.4 °F64.4 °F73 %29.88 in30.0 miSSW (210°)9.2 mph18.4 mphScattered Clouds
12:00 PM75.2 °F60.8 °F61 %29.87 in30.0 miSouth (180°)10.4 mphScattered Clouds
2:00 PM80.6 °F57.2 °F45 %29.85 in30.0 miWNW (300°)10.4 mphMostly Cloudy
2:00 PM80.0 °F53.0 °F29 %29.83 inWNW (300°)9.2 mph
2:35 PM80.6 °F55.4 °F42 %29.85 in30.0 miNW (310°)12.7 mph18.4 mphRainLight Rain Showers
3:00 PM75.2 °F59.0 °F57 %29.86 in15.0 miNorth (360°)16.1 mphRainLight Rain Showers
3:28 PM75.2 °F62.6 °F65 %29.85 in30.0 miWSW (240°)5.8 mphMostly Cloudy
4:00 PM77.0 °F62.6 °F61 %29.84 in30.0 miWest (260°)5.8 mphMostly Cloudy
5:00 PM80.0 °F56.0 °F32 %29.82 inWNW (290°)9.2 mph
5:00 PM80.6 °F57.2 °F45 %29.83 in30.0 miWest (280°)10.4 mphScattered Clouds
6:00 PM80.6 °F55.4 °F42 %29.83 in30.0 miWNW (290°)4.6 mphScattered Clouds
7:00 PM80.6 °F57.2 °F45 %29.82 in30.0 miWest (270°)6.9 mphPartly Cloudy
8:00 PM75.0 °F60.0 °F49 %29.82 inWest (260°)3.5 mph
8:00 PM75.2 °F57.2 °F53 %29.83 in30.0 miWest (260°)6.9 mphPartly Cloudy
9:00 PM73.4 °F60.8 °F65 %29.85 in30.0 miEast (80°)4.6 mphPartly Cloudy
10:00 PM64.4 °F59.0 °F83 %29.86 in20.0 miWest (260°)3.5 mphPartly Cloudy
11:00 PM60.0 °F58.0 °F90 %29.86 inWest (280°)3.5 mph
11:00 PM64.4 °F59.0 °F83 %29.87 in20.0 miVariable2.3 mphClear
Hourly data recorded from CYQB, located miles away from Quebec City, Quebec







STORIES FROM OUR PARTNERS